| time (UTC) | temp C | wind direction | speed KPH | gust KPH | rain 1hr cm | rain 24hr cm | rain mn cm | humidity % | barometer mb |
| 20260507164555 | 15 | 0 | 3.2 | 17.7 | 0.00 | 0.76 | 0.03 | 40 | 1008.0 |
| 20260507164039 | 14 | 113 | 1.6 | 11.3 | 0.00 | 0.76 | 0.03 | 40 | 1008.1 |
| 20260507163543 | 14 | 271 | 1.6 | 11.3 | 0.00 | 0.76 | 0.03 | 41 | 1008.2 |
| 20260507163048 | 14 | 283 | 1.6 | 16.1 | 0.00 | 0.76 | 0.03 | 44 | 1008.2 |
| 20260507162540 | 14 | 296 | 6.4 | 16.1 | 0.00 | 0.76 | 0.03 | 43 | 1008.3 |
| 20260507162043 | 14 | 346 | 1.6 | 12.9 | 0.00 | 0.76 | 0.03 | 42 | 1008.3 |
| 20260507161600 | 14 | 290 | 3.2 | 9.7 | 0.00 | 0.76 | 0.03 | 40 | 1008.2 |
| 20260507161040 | 14 | 338 | 3.2 | 9.7 | 0.00 | 0.76 | 0.03 | 41 | 1008.2 |
| 20260507160539 | 14 | 0 | 1.6 | 9.7 | 0.00 | 0.76 | 0.03 | 46 | 1008.4 |
| 20260507160048 | 14 | 249 | 1.6 | 11.3 | 0.00 | 0.76 | 0.03 | 46 | 1008.5 |
| 20260507155540 | 13 | 76 | 0.0 | 12.9 | 0.00 | 0.76 | 0.03 | 46 | 1008.5 |
| 20260507155040 | 13 | 280 | 3.2 | 12.9 | 0.00 | 0.76 | 0.03 | 49 | 1008.6 |
| 20260507154554 | 13 | 300 | 3.2 | 12.9 | 0.00 | 0.76 | 0.03 | 47 | 1008.6 |
| 20260507154039 | 13 | 317 | 3.2 | 12.9 | 0.00 | 0.76 | 0.03 | 47 | 1008.6 |
| 20260507153540 | 13 | 322 | 1.6 | 12.9 | 0.00 | 0.76 | 0.03 | 52 | 1008.6 |
| 20260507153057 | 13 | 312 | 4.8 | 12.9 | 0.00 | 0.76 | 0.03 | 48 | 1008.6 |
| 20260507152540 | 13 | 281 | 1.6 | 8.0 | 0.00 | 0.76 | 0.03 | 52 | 1008.6 |
| 20260507152039 | 13 | 343 | 1.6 | 6.4 | 0.00 | 0.76 | 0.03 | 53 | 1008.7 |
| 20260507151600 | 13 | 328 | 1.6 | 11.3 | 0.00 | 0.76 | 0.03 | 53 | 1008.7 |
| 20260507151039 | 13 | 0 | 1.6 | 11.3 | 0.00 | 0.76 | 0.03 | 51 | 1008.7 |
| 20260507150539 | 13 | 244 | 1.6 | 11.3 | 0.00 | 0.76 | 0.03 | 50 | 1008.8 |
| 20260507150101 | 13 | 170 | 1.6 | 11.3 | 0.00 | 0.76 | 0.03 | 53 | 1008.9 |
| 20260507145539 | 13 | 307 | 3.2 | 8.0 | 0.00 | 0.76 | 0.03 | 51 | 1008.8 |
| 20260507145041 | 13 | 309 | 1.6 | 8.0 | 0.00 | 0.76 | 0.03 | 58 | 1009.0 |
| 20260507144557 | 12 | 261 | 3.2 | 8.0 | 0.00 | 0.76 | 0.03 | 54 | 1008.9 |
| 20260507144043 | 12 | 355 | 1.6 | 8.0 | 0.00 | 0.76 | 0.03 | 56 | 1009.0 |
| 20260507143539 | 12 | 285 | 1.6 | 8.0 | 0.00 | 0.76 | 0.03 | 53 | 1009.0 |
| 20260507143059 | 12 | 0 | 1.6 | 12.9 | 0.00 | 0.76 | 0.03 | 56 | 1008.8 |
| 20260507142539 | 12 | 299 | 1.6 | 12.9 | 0.00 | 0.76 | 0.03 | 57 | 1008.9 |
| 20260507142040 | 12 | 268 | 3.2 | 9.7 | 0.00 | 0.76 | 0.03 | 56 | 1009.0 |
| 20260507141604 | 12 | 200 | 1.6 | 11.3 | 0.00 | 0.76 | 0.03 | 62 | 1008.9 |
| 20260507141041 | 12 | 296 | 3.2 | 11.3 | 0.00 | 0.76 | 0.03 | 63 | 1009.1 |
| 20260507140540 | 12 | 0 | 1.6 | 8.0 | 0.00 | 0.76 | 0.03 | 63 | 1008.8 |
| 20260507140049 | 11 | 0 | 3.2 | 8.0 | 0.00 | 0.76 | 0.03 | 67 | 1008.9 |
| 20260507135539 | 11 | 254 | 1.6 | 9.7 | 0.00 | 0.76 | 0.03 | 68 | 1008.8 |
| 20260507135038 | 11 | 310 | 3.2 | 9.7 | 0.00 | 0.76 | 0.03 | 67 | 1008.9 |
| 20260507134549 | 11 | 283 | 1.6 | 6.4 | 0.00 | 0.76 | 0.03 | 68 | 1008.7 |
| 20260507134038 | 11 | 307 | 1.6 | 6.4 | 0.00 | 0.76 | 0.03 | 70 | 1008.8 |
| 20260507133539 | 12 | 341 | 1.6 | 6.4 | 0.00 | 0.76 | 0.03 | 70 | 1008.8 |
| 20260507133051 | 12 | 301 | 1.6 | 6.4 | 0.00 | 0.76 | 0.03 | 72 | 1008.9 |
| 20260507132539 | 12 | 0 | 0.0 | 6.4 | 0.00 | 0.76 | 0.03 | 74 | 1008.7 |
| 20260507132039 | 12 | 0 | 1.6 | 8.0 | 0.00 | 0.76 | 0.03 | 75 | 1008.8 |
| 20260507131545 | 11 | 0 | 1.6 | 8.0 | 0.00 | 0.76 | 0.03 | 75 | 1008.8 |
| 20260507131038 | 11 | 298 | 3.2 | 8.0 | 0.00 | 0.76 | 0.03 | 72 | 1008.8 |
| 20260507130538 | 11 | 263 | 0.0 | 6.4 | 0.00 | 0.76 | 0.03 | 75 | 1008.9 |
| 20260507130045 | 11 | 252 | 1.6 | 6.4 | 0.00 | 0.76 | 0.03 | 76 | 1008.9 |
| 20260507125538 | 11 | 305 | 1.6 | 6.4 | 0.00 | 0.76 | 0.03 | 76 | 1009.0 |
| 20260507125040 | 11 | 284 | 1.6 | 6.4 | 0.00 | 0.76 | 0.03 | 77 | 1008.8 |
| 20260507124547 | 11 | 0 | 1.6 | 6.4 | 0.00 | 0.76 | 0.03 | 77 | 1008.8 |
| 20260507124039 | 10 | 309 | 1.6 | 9.7 | 0.00 | 0.76 | 0.03 | 77 | 1008.9 |
| 20260507123539 | 10 | 313 | 3.2 | 9.7 | 0.00 | 0.76 | 0.03 | 76 | 1008.9 |
| 20260507123049 | 10 | 269 | 1.6 | 4.8 | 0.00 | 0.76 | 0.03 | 79 | 1008.9 |
| 20260507122538 | 10 | 284 | 0.0 | 3.2 | 0.00 | 0.76 | 0.03 | 79 | 1008.9 |
| 20260507122039 | 10 | 264 | 0.0 | 4.8 | 0.00 | 0.76 | 0.03 | 81 | 1008.9 |
| 20260507121550 | 9 | 0 | 0.0 | 11.3 | 0.00 | 0.76 | 0.03 | 83 | 1009.0 |
| 20260507121040 | 9 | 0 | 1.6 | 11.3 | 0.00 | 0.76 | 0.03 | 82 | 1009.0 |
| 20260507120538 | 9 | 329 | 1.6 | 12.9 | 0.00 | 0.76 | 0.03 | 81 | 1008.8 |
| 20260507120059 | 8 | 0 | 1.6 | 12.9 | 0.00 | 0.76 | 0.03 | 83 | 1008.9 |
| 20260507115539 | 8 | 277 | 0.0 | 8.0 | 0.00 | 0.76 | 0.03 | 84 | 1008.9 |
| 20260507115040 | 8 | 322 | 0.0 | 8.0 | 0.00 | 0.76 | 0.03 | 86 | 1008.9 |
| 20260507114546 | 8 | 159 | 0.0 | 3.2 | 0.00 | 0.76 | 0.03 | 85 | 1008.9 |
| 20260507114038 | 8 | 0 | 0.0 | 3.2 | 0.00 | 0.76 | 0.03 | 86 | 1008.9 |
| 20260507113539 | 8 | 282 | 0.0 | 4.8 | 0.00 | 0.76 | 0.03 | 86 | 1008.8 |
| 20260507113050 | 8 | 288 | 0.0 | 4.8 | 0.00 | 0.76 | 0.03 | 86 | 1008.7 |
| 20260507112538 | 8 | 313 | 1.6 | 4.8 | 0.00 | 0.76 | 0.03 | 87 | 1008.6 |
| 20260507112038 | 8 | 352 | 0.0 | 3.2 | 0.00 | 0.76 | 0.03 | 88 | 1008.6 |
| 20260507111551 | 8 | 0 | 0.0 | 3.2 | 0.00 | 0.76 | 0.03 | 88 | 1008.7 |
| 20260507111039 | 8 | 309 | 0.0 | 3.2 | 0.00 | 0.76 | 0.03 | 89 | 1008.8 |
| 20260507110540 | 7 | 0 | 0.0 | 0.0 | 0.00 | 0.76 | 0.03 | 89 | 1008.7 |
| 20260507110056 | 7 | 0 | 0.0 | 0.0 | 0.00 | 0.76 | 0.03 | 90 | 1008.7 |
| 20260507105537 | 7 | 0 | 0.0 | 0.0 | 0.00 | 0.76 | 0.03 | 90 | 1008.5 |
| 20260507105039 | 7 | 0 | 0.0 | 0.0 | 0.00 | 0.76 | 0.03 | 90 | 1008.5 |
| 20260507104547 | 7 | 0 | 0.0 | 0.0 | 0.00 | 0.76 | 0.03 | 90 | 1008.6 |
| 20260507104039 | 7 | 0 | 0.0 | 0.0 | 0.00 | 0.76 | 0.03 | 90 | 1008.5 |
| 20260507103539 | 7 | 0 | 0.0 | 0.0 | 0.00 | 0.76 | 0.03 | 90 | 1008.5 |
| 20260507103050 | 7 | 0 | 0.0 | 0.0 | 0.00 | 0.76 | 0.03 | 90 | 1008.6 |
| 20260507102539 | 7 | 0 | 0.0 | 0.0 | 0.00 | 0.76 | 0.03 | 91 | 1008.3 |
| 20260507102042 | 7 | 0 | 0.0 | 0.0 | 0.00 | 0.76 | 0.03 | 91 | 1008.2 |
| 20260507101552 | 7 | 0 | 0.0 | 0.0 | 0.00 | 0.76 | 0.03 | 90 | 1007.9 |
| 20260507101038 | 7 | 0 | 0.0 | 0.0 | 0.00 | 0.76 | 0.03 | 90 | 1008.1 |
| 20260507100542 | 7 | 0 | 0.0 | 4.8 | 0.00 | 0.76 | 0.03 | 90 | 1008.0 |
| 20260507100054 | 7 | 0 | 0.0 | 4.8 | 0.00 | 0.76 | 0.03 | 90 | 1008.2 |
| 20260507095538 | 7 | 0 | 0.0 | 1.6 | 0.00 | 0.76 | 0.03 | 90 | 1007.9 |
| 20260507095037 | 7 | 0 | 0.0 | 1.6 | 0.00 | 0.76 | 0.03 | 90 | 1007.9 |
| 20260507094555 | 7 | 0 | 0.0 | 3.2 | 0.00 | 0.76 | 0.03 | 90 | 1008.0 |
| 20260507094039 | 7 | 0 | 0.0 | 3.2 | 0.00 | 0.76 | 0.03 | 90 | 1008.2 |
| 20260507093539 | 7 | 0 | 0.0 | 4.8 | 0.00 | 0.76 | 0.03 | 90 | 1008.1 |
| 20260507093052 | 7 | 0 | 0.0 | 4.8 | 0.00 | 0.76 | 0.03 | 90 | 1008.0 |
| 20260507092539 | 7 | 0 | 0.0 | 3.2 | 0.00 | 0.76 | 0.03 | 90 | 1008.1 |
| 20260507092042 | 7 | 0 | 0.0 | 3.2 | 0.00 | 0.76 | 0.03 | 91 | 1008.3 |
| 20260507091549 | 7 | 0 | 0.0 | 0.0 | 0.00 | 0.76 | 0.03 | 91 | 1008.3 |
| 20260507091039 | 7 | 0 | 0.0 | 1.6 | 0.00 | 0.76 | 0.03 | 91 | 1008.1 |
| 20260507090539 | 7 | 0 | 0.0 | 3.2 | 0.00 | 0.76 | 0.03 | 91 | 1008.5 |
| 20260507090048 | 7 | 0 | 0.0 | 3.2 | 0.00 | 0.76 | 0.03 | 90 | 1008.5 |
| 20260507085538 | 7 | 0 | 0.0 | 3.2 | 0.00 | 0.76 | 0.03 | 90 | 1008.5 |
| 20260507085041 | 7 | 0 | 0.0 | 3.2 | 0.00 | 0.76 | 0.03 | 90 | 1008.6 |
| 20260507084549 | 7 | 0 | 0.0 | 3.2 | 0.00 | 0.76 | 0.03 | 90 | 1008.8 |
| 20260507084040 | 7 | 0 | 0.0 | 3.2 | 0.00 | 0.76 | 0.03 | 91 | 1008.8 |
| 20260507083538 | 7 | 0 | 0.0 | 3.2 | 0.00 | 0.76 | 0.03 | 90 | 1008.7 |
| 20260507083050 | 7 | 0 | 0.0 | 3.2 | 0.00 | 0.76 | 0.03 | 90 | 1008.3 |
| 20260507082539 | 7 | 0 | 0.0 | 3.2 | 0.00 | 0.76 | 0.03 | 90 | 1008.2 |
| 20260507082041 | 8 | 0 | 0.0 | 1.6 | 0.03 | 0.76 | 0.03 | 90 | 1008.5 |
| 20260507081548 | 8 | 0 | 0.0 | 1.6 | 0.03 | 0.76 | 0.03 | 90 | 1008.3 |
| 20260507081040 | 8 | 0 | 0.0 | 6.4 | 0.03 | 0.76 | 0.03 | 90 | 1008.1 |
| 20260507080540 | 8 | 0 | 0.0 | 6.4 | 0.03 | 0.76 | 0.03 | 90 | 1008.2 |
| 20260507080051 | 8 | 0 | 0.0 | 6.4 | 0.03 | 0.76 | 0.03 | 90 | 1008.3 |
| 20260507075540 | 8 | 0 | 0.0 | 3.2 | 0.03 | 0.76 | 0.03 | 90 | 1008.4 |
| 20260507075040 | 8 | 0 | 0.0 | 3.2 | 0.03 | 0.76 | 0.03 | 90 | 1008.2 |
| 20260507074553 | 8 | 0 | 0.0 | 1.6 | 0.03 | 0.76 | 0.03 | 90 | 1008.4 |
| 20260507074039 | 8 | 0 | 0.0 | 4.8 | 0.03 | 0.76 | 0.03 | 90 | 1008.0 |
| 20260507073540 | 8 | 0 | 0.0 | 4.8 | 0.03 | 0.76 | 0.03 | 90 | 1007.8 |
| 20260507073107 | 8 | 79 | 0.0 | 4.8 | 0.03 | 0.76 | 0.03 | 89 | 1007.9 |
| 20260507072540 | 8 | 0 | 0.0 | 6.4 | 0.03 | 0.76 | 0.03 | 88 | 1008.0 |
| 20260507072039 | 8 | 0 | 0.0 | 6.4 | 0.00 | 0.74 | 0.00 | 89 | 1008.2 |
| 20260507071546 | 8 | 306 | 1.6 | 6.4 | 0.00 | 0.74 | 0.00 | 88 | 1008.3 |
| 20260507071040 | 8 | 234 | 0.0 | 3.2 | 0.00 | 0.74 | 0.00 | 89 | 1008.2 |
| 20260507070539 | 8 | 0 | 1.6 | 3.2 | 0.00 | 0.74 | 0.00 | 89 | 1007.9 |
| 20260507070045 | 8 | 0 | 0.0 | 3.2 | 0.00 | 0.74 | 0.00 | 89 | 1007.7 |
| 20260507065540 | 8 | 0 | 0.0 | 3.2 | 0.00 | 0.74 | 0.00 | 89 | 1007.7 |
| 20260507065041 | 8 | 0 | 0.0 | 3.2 | 0.00 | 0.74 | 0.00 | 88 | 1007.6 |
| 20260507064604 | 8 | 0 | 0.0 | 1.6 | 0.00 | 0.74 | 0.00 | 88 | 1007.5 |
| 20260507064040 | 8 | 0 | 0.0 | 3.2 | 0.00 | 0.74 | 0.00 | 88 | 1007.5 |
| 20260507063540 | 8 | 0 | 0.0 | 3.2 | 0.00 | 0.74 | 0.00 | 88 | 1007.4 |
| 20260507063052 | 8 | 124 | 0.0 | 3.2 | 0.00 | 0.74 | 0.00 | 87 | 1007.3 |
| 20260507062540 | 8 | 0 | 0.0 | 3.2 | 0.00 | 0.74 | 0.00 | 88 | 1007.3 |
| 20260507062040 | 8 | 0 | 0.0 | 0.0 | 0.00 | 0.74 | 0.00 | 90 | 1007.5 |
| 20260507061546 | 8 | 0 | 0.0 | 0.0 | 0.00 | 0.74 | 0.00 | 88 | 1007.7 |
| 20260507061039 | 8 | 0 | 0.0 | 3.2 | 0.00 | 0.74 | 0.00 | 89 | 1007.9 |
| 20260507060540 | 8 | 0 | 0.0 | 3.2 | 0.00 | 0.74 | 0.00 | 89 | 1007.9 |
| 20260507060051 | 9 | 0 | 0.0 | 1.6 | 0.00 | 0.74 | 0.00 | 89 | 1007.8 |
| 20260507055540 | 9 | 0 | 0.0 | 1.6 | 0.00 | 0.74 | 0.00 | 89 | 1007.8 |
| 20260507055040 | 9 | 9 | 0.0 | 1.6 | 0.00 | 0.74 | 0.00 | 88 | 1007.8 |
| 20260507054547 | 9 | 0 | 0.0 | 3.2 | 0.00 | 0.74 | 0.00 | 89 | 1007.7 |
| 20260507054039 | 9 | 0 | 0.0 | 3.2 | 0.00 | 0.74 | 0.00 | 89 | 1007.9 |
| 20260507053539 | 9 | 0 | 0.0 | 3.2 | 0.00 | 0.74 | 0.00 | 89 | 1007.9 |
| 20260507053045 | 10 | 0 | 0.0 | 0.0 | 0.00 | 0.74 | 0.00 | 91 | 1008.1 |
| 20260507052540 | 10 | 0 | 0.0 | 0.0 | 0.00 | 0.74 | 0.00 | 90 | 1008.1 |
| 20260507052039 | 10 | 0 | 0.0 | 0.0 | 0.00 | 0.74 | 0.00 | 91 | 1008.2 |
| 20260507051551 | 10 | 0 | 0.0 | 0.0 | 0.00 | 0.74 | 0.00 | 91 | 1008.4 |
| 20260507051042 | 10 | 0 | 0.0 | 0.0 | 0.00 | 0.74 | 0.00 | 92 | 1008.3 |
| 20260507050540 | 10 | 0 | 0.0 | 0.0 | 0.00 | 0.74 | 0.00 | 92 | 1008.2 |
| 20260507050056 | 10 | 0 | 0.0 | 0.0 | 0.00 | 0.74 | 0.00 | 92 | 1008.1 |
| 20260507045540 | 10 | 0 | 0.0 | 0.0 | 0.00 | 0.74 | 0.00 | 92 | 1008.2 |
| 20260507045040 | 10 | 0 | 0.0 | 0.0 | 0.00 | 0.74 | 0.00 | 92 | 1008.5 |
| 20260507044549 | 10 | 0 | 0.0 | 0.0 | 0.00 | 0.74 | 0.00 | 92 | 1008.1 |
| 20260507044039 | 10 | 0 | 0.0 | 0.0 | 0.00 | 0.74 | 0.00 | 92 | 1008.0 |
| 20260507043540 | 10 | 0 | 0.0 | 4.8 | 0.03 | 0.74 | 0.00 | 91 | 1008.1 |
| 20260507043049 | 10 | 0 | 0.0 | 6.4 | 0.03 | 0.74 | 0.00 | 92 | 1007.9 |
| 20260507042540 | 10 | 0 | 0.0 | 6.4 | 0.03 | 0.74 | 0.00 | 91 | 1007.8 |
| 20260507042040 | 11 | 0 | 0.0 | 3.2 | 0.03 | 0.74 | 0.00 | 91 | 1007.7 |
| 20260507041548 | 11 | 0 | 0.0 | 0.0 | 0.03 | 0.74 | 0.00 | 91 | 1007.8 |
| 20260507041039 | 11 | 0 | 0.0 | 3.2 | 0.03 | 0.74 | 0.00 | 90 | 1007.7 |
| 20260507040540 | 11 | 0 | 0.0 | 3.2 | 0.03 | 0.74 | 0.00 | 90 | 1007.6 |
| 20260507040056 | 11 | 0 | 0.0 | 4.8 | 0.03 | 0.74 | 0.00 | 90 | 1007.8 |
| 20260507035539 | 11 | 172 | 0.0 | 4.8 | 0.03 | 0.74 | 0.74 | 91 | 1007.7 |
| 20260507035040 | 12 | 329 | 0.0 | 3.2 | 0.03 | 0.74 | 0.74 | 92 | 1008.1 |
| 20260507034608 | 12 | 0 | 0.0 | 3.2 | 0.03 | 0.74 | 0.74 | 92 | 1007.9 |
| 20260507034040 | 12 | 244 | 0.0 | 3.2 | 0.03 | 0.74 | 0.74 | 92 | 1007.9 |
| 20260507033539 | 12 | 268 | 0.0 | 4.8 | 0.00 | 0.71 | 0.71 | 92 | 1007.8 |
| 20260507033103 | 12 | 283 | 0.0 | 6.4 | 0.00 | 0.71 | 0.71 | 92 | 1007.5 |
| 20260507032538 | 12 | 282 | 1.6 | 6.4 | 0.00 | 0.71 | 0.71 | 91 | 1007.6 |
| 20260507032039 | 12 | 355 | 1.6 | 4.8 | 0.00 | 0.71 | 0.71 | 92 | 1007.8 |
| 20260507031548 | 12 | 245 | 1.6 | 4.8 | 0.00 | 0.71 | 0.71 | 92 | 1007.7 |
| 20260507031040 | 12 | 227 | 1.6 | 3.2 | 0.00 | 0.71 | 0.71 | 92 | 1007.6 |
| 20260507030543 | 12 | 0 | 0.0 | 3.2 | 0.00 | 0.71 | 0.71 | 92 | 1007.4 |
| 20260507030051 | 13 | 0 | 0.0 | 3.2 | 0.00 | 0.71 | 0.71 | 92 | 1007.3 |
| 20260507025539 | 13 | 190 | 0.0 | 3.2 | 0.00 | 0.71 | 0.71 | 92 | 1007.3 |
| 20260507025039 | 13 | 0 | 0.0 | 4.8 | 0.00 | 0.71 | 0.71 | 92 | 1007.1 |
| 20260507024553 | 13 | 0 | 0.0 | 4.8 | 0.00 | 0.71 | 0.71 | 91 | 1006.9 |
| 20260507024043 | 13 | 299 | 0.0 | 4.8 | 0.00 | 0.71 | 0.71 | 91 | 1006.9 |
| 20260507023542 | 13 | 248 | 1.6 | 8.0 | 0.00 | 0.71 | 0.71 | 91 | 1006.9 |
| 20260507023047 | 13 | 321 | 1.6 | 8.0 | 0.00 | 0.71 | 0.71 | 91 | 1006.9 |
| 20260507022540 | 13 | 302 | 1.6 | 9.7 | 0.00 | 0.71 | 0.71 | 91 | 1007.0 |
| 20260507022039 | 14 | 275 | 1.6 | 11.3 | 0.00 | 0.71 | 0.71 | 91 | 1007.1 |
| 20260507021558 | 14 | 296 | 3.2 | 11.3 | 0.00 | 0.71 | 0.71 | 93 | 1007.2 |
| 20260507021044 | 14 | 225 | 1.6 | 6.4 | 0.00 | 0.71 | 0.71 | 94 | 1007.2 |
| 20260507020540 | 14 | 312 | 1.6 | 6.4 | 0.00 | 0.71 | 0.71 | 94 | 1006.9 |
| 20260507020047 | 14 | 0 | 1.6 | 4.8 | 0.00 | 0.71 | 0.71 | 94 | 1006.9 |
| 20260507015539 | 14 | 280 | 0.0 | 4.8 | 0.00 | 0.71 | 0.71 | 94 | 1006.9 |
| 20260507015040 | 14 | 0 | 0.0 | 4.8 | 0.00 | 0.71 | 0.71 | 94 | 1006.7 |
| 20260507014549 | 14 | 246 | 0.0 | 4.8 | 0.00 | 0.71 | 0.71 | 94 | 1006.5 |
| 20260507014040 | 14 | 0 | 1.6 | 4.8 | 0.00 | 0.71 | 0.71 | 94 | 1006.5 |
| 20260507013539 | 14 | 239 | 0.0 | 4.8 | 0.00 | 0.71 | 0.71 | 94 | 1006.7 |
| 20260507013058 | 14 | 325 | 1.6 | 4.8 | 0.00 | 0.71 | 0.71 | 94 | 1006.8 |
| 20260507012539 | 14 | 0 | 0.0 | 6.4 | 0.00 | 0.71 | 0.71 | 94 | 1006.3 |
| 20260507012040 | 14 | 0 | 0.0 | 6.4 | 0.00 | 0.71 | 0.71 | 94 | 1006.3 |
| 20260507011545 | 14 | 193 | 1.6 | 6.4 | 0.00 | 0.71 | 0.71 | 94 | 1006.4 |
| 20260507011044 | 14 | 0 | 0.0 | 6.4 | 0.03 | 0.71 | 0.71 | 94 | 1006.6 |
| 20260507010539 | 14 | 233 | 0.0 | 6.4 | 0.03 | 0.71 | 0.71 | 94 | 1006.6 |
| 20260507010053 | 14 | 254 | 0.0 | 6.4 | 0.03 | 0.71 | 0.71 | 94 | 1006.8 |
| 20260507005541 | 13 | 295 | 0.0 | 3.2 | 0.03 | 0.71 | 0.71 | 94 | 1006.7 |
| 20260507005040 | 14 | 227 | 0.0 | 4.8 | 0.03 | 0.71 | 0.71 | 94 | 1006.8 |
| 20260507004550 | 14 | 0 | 0.0 | 4.8 | 0.03 | 0.71 | 0.71 | 94 | 1006.8 |
| 20260507004040 | 13 | 326 | 0.0 | 9.7 | 0.03 | 0.71 | 0.71 | 94 | 1006.7 |
| 20260507003541 | 13 | 213 | 1.6 | 9.7 | 0.03 | 0.71 | 0.71 | 94 | 1006.6 |
| 20260507003047 | 13 | 0 | 0.0 | 4.8 | 0.03 | 0.71 | 0.71 | 94 | 1006.7 |
| 20260507002540 | 13 | 0 | 1.6 | 6.4 | 0.03 | 0.71 | 0.71 | 94 | 1006.7 |
| 20260507002040 | 13 | 0 | 0.0 | 6.4 | 0.03 | 0.71 | 0.71 | 94 | 1006.6 |
| 20260507001607 | 13 | 201 | 0.0 | 9.7 | 0.03 | 0.71 | 0.71 | 94 | 1006.6 |
| 20260507001039 | 13 | 196 | 3.2 | 9.7 | 0.00 | 0.69 | 0.69 | 94 | 1006.5 |
| 20260507000540 | 13 | 235 | 0.0 | 9.7 | 0.00 | 0.69 | 0.69 | 94 | 1006.5 |
| 20260507000052 | 13 | 200 | 0.0 | 9.7 | 0.00 | 0.69 | 0.69 | 93 | 1006.6 |
| 20260506235539 | 13 | 204 | 3.2 | 8.0 | 0.00 | 0.69 | 0.69 | 94 | 1006.4 |
| 20260506235040 | 13 | 190 | 1.6 | 4.8 | 0.03 | 0.69 | 0.69 | 93 | 1006.5 |
| 20260506234558 | 13 | 228 | 0.0 | 3.2 | 0.03 | 0.69 | 0.69 | 94 | 1006.5 |
| 20260506234039 | 14 | 223 | 1.6 | 4.8 | 0.03 | 0.69 | 0.69 | 94 | 1006.5 |
| 20260506233541 | 14 | 0 | 0.0 | 8.0 | 0.05 | 0.69 | 0.69 | 93 | 1006.4 |
| 20260506233053 | 14 | 223 | 0.0 | 8.0 | 0.08 | 0.69 | 0.69 | 93 | 1006.3 |
| 20260506232539 | 14 | 218 | 0.0 | 3.2 | 0.10 | 0.69 | 0.69 | 94 | 1006.4 |
| 20260506232040 | 14 | 238 | 0.0 | 6.4 | 0.13 | 0.69 | 0.69 | 94 | 1006.5 |
| 20260506231554 | 14 | 0 | 1.6 | 6.4 | 0.13 | 0.69 | 0.69 | 94 | 1006.5 |
| 20260506231039 | 14 | 0 | 0.0 | 4.8 | 0.13 | 0.69 | 0.69 | 94 | 1006.2 |
| 20260506230540 | 14 | 257 | 0.0 | 4.8 | 0.13 | 0.69 | 0.69 | 94 | 1006.4 |
| 20260506230050 | 14 | 0 | 0.0 | 4.8 | 0.15 | 0.69 | 0.69 | 94 | 1006.4 |
| 20260506225543 | 14 | 183 | 0.0 | 4.8 | 0.15 | 0.69 | 0.69 | 94 | 1006.2 |
| 20260506225041 | 14 | 193 | 1.6 | 4.8 | 0.13 | 0.66 | 0.66 | 93 | 1006.5 |
| 20260506224606 | 14 | 0 | 0.0 | 4.8 | 0.15 | 0.66 | 0.66 | 93 | 1006.5 |
| 20260506224039 | 14 | 202 | 1.6 | 6.4 | 0.15 | 0.66 | 0.66 | 93 | 1006.6 |
| 20260506223540 | 14 | 186 | 0.0 | 6.4 | 0.15 | 0.64 | 0.64 | 93 | 1006.6 |
| 20260506223054 | 14 | 254 | 1.6 | 6.4 | 0.15 | 0.61 | 0.61 | 93 | 1006.6 |
| 20260506222541 | 14 | 198 | 1.6 | 6.4 | 0.15 | 0.58 | 0.58 | 93 | 1006.6 |
| 20260506222040 | 14 | 0 | 0.0 | 4.8 | 0.15 | 0.56 | 0.56 | 93 | 1006.7 |
| 20260506221550 | 14 | 0 | 0.0 | 8.0 | 0.15 | 0.56 | 0.56 | 93 | 1006.6 |
| 20260506221039 | 14 | 200 | 1.6 | 8.0 | 0.20 | 0.56 | 0.56 | 93 | 1006.6 |
| 20260506220539 | 14 | 235 | 0.0 | 4.8 | 0.23 | 0.56 | 0.56 | 93 | 1006.7 |
| 20260506220101 | 14 | 222 | 0.0 | 6.4 | 0.20 | 0.53 | 0.53 | 93 | 1006.7 |
| 20260506215541 | 14 | 0 | 1.6 | 6.4 | 0.20 | 0.53 | 0.53 | 93 | 1006.8 |
| 20260506215041 | 14 | 0 | 0.0 | 4.8 | 0.18 | 0.51 | 0.51 | 93 | 1006.7 |
| 20260506214551 | 14 | 217 | 1.6 | 9.7 | 0.18 | 0.51 | 0.51 | 93 | 1006.8 |
| 20260506214039 | 14 | 0 | 1.6 | 9.7 | 0.18 | 0.51 | 0.51 | 92 | 1006.8 |
| 20260506213539 | 14 | 242 | 1.6 | 4.8 | 0.15 | 0.48 | 0.48 | 93 | 1006.7 |
| 20260506213049 | 14 | 0 | 0.0 | 4.8 | 0.13 | 0.46 | 0.46 | 93 | 1006.8 |
| 20260506212540 | 14 | 205 | 0.0 | 8.0 | 0.13 | 0.43 | 0.43 | 92 | 1006.9 |
| 20260506212040 | 14 | 0 | 1.6 | 8.0 | 0.10 | 0.41 | 0.41 | 92 | 1006.9 |
| 20260506211554 | 14 | 200 | 0.0 | 4.8 | 0.10 | 0.41 | 0.41 | 92 | 1006.9 |
| 20260506211040 | 14 | 198 | 1.6 | 8.0 | 0.08 | 0.36 | 0.36 | 92 | 1007.0 |
| 20260506210540 | 14 | 193 | 1.6 | 8.0 | 0.05 | 0.33 | 0.33 | 91 | 1007.1 |
| 20260506210054 | 14 | 173 | 1.6 | 8.0 | 0.08 | 0.33 | 0.33 | 91 | 1007.1 |
| 20260506205539 | 14 | 157 | 1.6 | 8.0 | 0.08 | 0.33 | 0.33 | 92 | 1007.0 |
| 20260506205039 | 14 | 254 | 1.6 | 6.4 | 0.08 | 0.33 | 0.33 | 92 | 1007.1 |
| 20260506204548 | 14 | 0 | 1.6 | 8.0 | 0.10 | 0.33 | 0.33 | 92 | 1007.1 |
| 20260506204039 | 15 | 257 | 1.6 | 8.0 | 0.10 | 0.33 | 0.33 | 91 | 1007.2 |
| 20260506203540 | 15 | 171 | 1.6 | 6.4 | 0.13 | 0.33 | 0.33 | 92 | 1007.2 |
| 20260506203058 | 15 | 188 | 1.6 | 6.4 | 0.13 | 0.33 | 0.33 | 91 | 1007.2 |
| 20260506202541 | 15 | 272 | 1.6 | 6.4 | 0.10 | 0.30 | 0.30 | 91 | 1007.2 |
| 20260506202039 | 15 | 202 | 0.0 | 6.4 | 0.10 | 0.30 | 0.30 | 92 | 1007.5 |
| 20260506201551 | 15 | 232 | 1.6 | 6.4 | 0.08 | 0.28 | 0.28 | 91 | 1007.2 |
| 20260506201040 | 15 | 238 | 1.6 | 4.8 | 0.08 | 0.28 | 0.28 | 91 | 1007.4 |
| 20260506200539 | 15 | 169 | 0.0 | 6.4 | 0.10 | 0.28 | 0.28 | 91 | 1007.3 |
| 20260506200051 | 15 | 0 | 0.0 | 8.0 | 0.08 | 0.25 | 0.25 | 91 | 1007.5 |
| 20260506195540 | 15 | 181 | 1.6 | 8.0 | 0.08 | 0.25 | 0.25 | 91 | 1007.5 |
| 20260506195041 | 15 | 227 | 1.6 | 6.4 | 0.08 | 0.25 | 0.25 | 91 | 1007.4 |
| 20260506194553 | 15 | 168 | 0.0 | 6.4 | 0.08 | 0.23 | 0.23 | 91 | 1007.4 |
| 20260506194040 | 15 | 239 | 3.2 | 8.0 | 0.08 | 0.23 | 0.23 | 90 | 1007.5 |
| 20260506193539 | 15 | 167 | 3.2 | 8.0 | 0.05 | 0.20 | 0.20 | 90 | 1007.6 |
| 20260506193052 | 15 | 170 | 1.6 | 6.4 | 0.08 | 0.20 | 0.20 | 91 | 1007.5 |
| 20260506192540 | 15 | 175 | 1.6 | 6.4 | 0.10 | 0.20 | 0.20 | 90 | 1007.5 |
| 20260506192040 | 15 | 186 | 1.6 | 6.4 | 0.13 | 0.20 | 0.20 | 90 | 1007.6 |
| 20260506191548 | 15 | 195 | 1.6 | 8.0 | 0.13 | 0.20 | 0.20 | 90 | 1007.5 |
| 20260506191040 | 15 | 171 | 3.2 | 8.0 | 0.15 | 0.20 | 0.20 | 90 | 1007.6 |
| 20260506190542 | 15 | 219 | 1.6 | 9.7 | 0.13 | 0.18 | 0.18 | 90 | 1007.6 |
| 20260506190052 | 15 | 210 | 3.2 | 9.7 | 0.13 | 0.18 | 0.18 | 90 | 1007.5 |
| 20260506185539 | 15 | 221 | 0.0 | 4.8 | 0.15 | 0.18 | 0.18 | 90 | 1007.7 |
| 20260506185040 | 15 | 213 | 0.0 | 6.4 | 0.18 | 0.18 | 0.18 | 90 | 1007.6 |
| 20260506184551 | 16 | 0 | 0.0 | 8.0 | 0.15 | 0.15 | 0.15 | 89 | 1007.3 |
| 20260506184040 | 16 | 219 | 1.6 | 8.0 | 0.15 | 0.15 | 0.15 | 88 | 1007.5 |
| 20260506183543 | 16 | 140 | 1.6 | 8.0 | 0.15 | 0.15 | 0.15 | 88 | 1007.7 |
| 20260506183058 | 16 | 0 | 1.6 | 8.0 | 0.13 | 0.13 | 0.13 | 87 | 1007.8 |
| 20260506182540 | 16 | 206 | 1.6 | 8.0 | 0.10 | 0.10 | 0.10 | 87 | 1007.8 |
| 20260506182039 | 16 | 190 | 0.0 | 3.2 | 0.08 | 0.08 | 0.08 | 86 | 1008.2 |
| 20260506181604 | 16 | 0 | 0.0 | 3.2 | 0.08 | 0.08 | 0.08 | 86 | 1008.2 |
| 20260506181040 | 17 | 223 | 0.0 | 4.8 | 0.05 | 0.05 | 0.05 | 85 | 1008.3 |
| 20260506180541 | 17 | 0 | 0.0 | 4.8 | 0.05 | 0.05 | 0.05 | 83 | 1008.1 |
| 20260506180054 | 17 | 0 | 1.6 | 6.4 | 0.03 | 0.03 | 0.03 | 82 | 1008.3 |
| 20260506175540 | 17 | 0 | 0.0 | 6.4 | 0.03 | 0.03 | 0.03 | 80 | 1008.5 |
| 20260506175039 | 18 | 313 | 1.6 | 6.4 | 0.00 | 0.00 | 0.00 | 78 | 1008.5 |
| 20260506174545 | 18 | 285 | 1.6 | 14.5 | 0.00 | 0.00 | 0.00 | 74 | 1008.5 |
| 20260506174040 | 19 | 237 | 3.2 | 14.5 | 0.00 | 0.00 | 0.00 | 72 | 1008.6 |
| 20260506173542 | 20 | 259 | 1.6 | 12.9 | 0.00 | 0.00 | 0.00 | 69 | 1008.5 |
| 20260506173107 | 20 | 157 | 4.8 | 12.9 | 0.00 | 0.00 | 0.00 | 67 | 1008.2 |
| 20260506172541 | 20 | 178 | 3.2 | 9.7 | 0.00 | 0.00 | 0.00 | 67 | 1008.1 |
| 20260506172041 | 20 | 207 | 1.6 | 8.0 | 0.00 | 0.00 | 0.00 | 66 | 1008.1 |
| 20260506171553 | 20 | 199 | 3.2 | 14.5 | 0.00 | 0.00 | 0.00 | 65 | 1008.1 |
| 20260506171043 | 20 | 132 | 4.8 | 14.5 | 0.00 | 0.00 | 0.00 | 64 | 1008.0 |
| 20260506170541 | 20 | 217 | 1.6 | 11.3 | 0.00 | 0.00 | 0.00 | 65 | 1008.0 |
| 20260506170059 | 20 | 155 | 4.8 | 14.5 | 0.00 | 0.00 | 0.00 | 64 | 1008.1 |
| 20260506165543 | 20 | 212 | 4.8 | 16.1 | 0.00 | 0.00 | 0.00 | 63 | 1008.2 |
| 20260506165041 | 21 | 183 | 4.8 | 16.1 | 0.00 | 0.00 | 0.00 | 62 | 1008.1 |